Location: St Paul
(33.4390°N, 83.7350°W)
Time: 01:31:42
(UTC-04:00)

Cosmos 2366 rocket - Pass Details

Date: 06 October 2017
Orbit: 954 x 998 km, 82.9° (Epoch: 18 October)

Event Time Altitude Azimuth Distance (km) Brightness Sun altitude
Rises 20:02:55 0° 162° (SSE) 3,690 6.8 -11.4°
Reaches altitude 10° 20:05:37 10° 154° (SSE) 2,740 6.1 -11.9°
Maximum altitude 20:11:18 37° 89° (E) 1,474 4.4 -13.1°
Drops below altitude 10° 20:16:57 10° 24° (NNE) 2,727 6.1 -14.3°
Sets 20:19:38 0° 17° (NNE) 3,671 6.9 -14.9°
